TimePDT,TemperatureF,Dew PointF,Humidity,Sea Level PressureIn,VisibilityMPH,Wind Direction,Wind SpeedMPH,Gust SpeedMPH,PrecipitationIn,Events,Conditions,WindDirDegrees,DateUTC
12:56 AM,57.0,37.9,49,29.96,10.0,West,24.2,34.5,N/A,,Clear,270,2013-04-07 07:56:00
1:56 AM,57.9,37.0,46,29.95,10.0,West,33.4,42.6,N/A,,Clear,280,2013-04-07 08:56:00
2:56 AM,57.9,39.9,51,29.93,10.0,WNW,29.9,38.0,N/A,,Clear,290,2013-04-07 09:56:00
3:56 AM,55.0,42.1,62,29.94,10.0,West,24.2,28.8,N/A,,Clear,270,2013-04-07 10:56:00
4:56 AM,54.0,43.0,66,29.94,10.0,West,20.7,29.9,N/A,,Clear,260,2013-04-07 11:56:00
5:56 AM,54.0,42.1,64,29.95,10.0,West,17.3,24.2,N/A,,Clear,280,2013-04-07 12:56:00
6:56 AM,54.0,42.1,64,29.96,10.0,WNW,24.2,32.2,N/A,,Clear,290,2013-04-07 13:56:00
7:56 AM,55.9,42.1,60,29.98,10.0,WNW,21.9,28.8,N/A,,Clear,290,2013-04-07 14:56:00
8:56 AM,61.0,39.0,44,29.97,10.0,WNW,25.3,29.9,N/A,,Clear,290,2013-04-07 15:56:00
9:56 AM,63.0,39.0,41,29.97,10.0,West,25.3,31.1,N/A,,Clear,280,2013-04-07 16:56:00
10:56 AM,63.0,37.0,38,29.97,10.0,West,29.9,35.7,N/A,,Clear,280,2013-04-07 17:56:00
11:56 AM,66.0,37.0,34,29.96,10.0,West,31.1,38.0,N/A,,Clear,280,2013-04-07 18:56:00
12:56 PM,69.1,34.0,27,29.94,10.0,WNW,21.9,28.8,N/A,,Clear,290,2013-04-07 19:56:00
1:56 PM,73.9,30.0,20,29.89,10.0,WNW,20.7,31.1,N/A,,Clear,290,2013-04-07 20:56:00
2:56 PM,73.9,30.9,21,29.86,10.0,West,32.2,38.0,N/A,,Clear,280,2013-04-07 21:56:00
3:56 PM,71.1,33.1,25,29.85,10.0,West,32.2,39.1,N/A,,Clear,270,2013-04-07 22:56:00
4:56 PM,70.0,34.0,27,29.83,10.0,West,28.8,39.1,N/A,,Clear,280,2013-04-07 23:56:00
5:56 PM,66.9,35.1,31,29.81,10.0,West,28.8,38.0,N/A,,Clear,270,2013-04-08 00:56:00
6:09 PM,66.2,33.8,30,29.84,0.5,West,31.1,36.8,N/A,,Haze,270,2013-04-08 01:09:00
6:16 PM,66.2,33.8,30,29.84,0.2,West,28.8,38.0,N/A,,Haze,280,2013-04-08 01:16:00
6:32 PM,64.4,33.8,32,29.84,1.8,West,32.2,40.3,N/A,,Haze,270,2013-04-08 01:32:00
6:39 PM,64.4,33.8,32,29.84,10.0,West,26.5,35.7,N/A,,Clear,280,2013-04-08 01:39:00
6:52 PM,62.6,33.8,34,29.85,0.5,West,24.2,38.0,N/A,,Haze,270,2013-04-08 01:52:00
6:56 PM,63.0,34.0,34,29.83,0.2,West,28.8,38.0,N/A,,Haze,270,2013-04-08 01:56:00
7:23 PM,60.8,35.6,39,29.85,1.0,West,27.6,33.4,N/A,,Haze,260,2013-04-08 02:23:00
7:25 PM,60.8,35.6,39,29.85,5.0,West,25.3,33.4,N/A,,Haze,270,2013-04-08 02:25:00
7:56 PM,60.1,36.0,41,29.81,10.0,West,26.5,-,N/A,,Clear,270,2013-04-08 02:56:00
8:56 PM,59.0,36.0,42,29.82,10.0,West,18.4,28.8,N/A,,Clear,260,2013-04-08 03:56:00
9:56 PM,59.0,37.0,44,29.81,10.0,West,26.5,-,N/A,,Clear,270,2013-04-08 04:56:00
10:56 PM,57.9,37.0,46,29.80,10.0,West,19.6,-,N/A,,Clear,270,2013-04-08 05:56:00
11:56 PM,57.0,39.0,51,29.78,10.0,WSW,13.8,21.9,N/A,,Clear,240,2013-04-08 06:56:00